[[{"header":{"parameterUnit":"m.s-1","parameterCategory":1,"la1":30.2991,"la2":30.254,"lo1":-89.0895,"lo2":-89.0444,"dy":0.0017,"dx":0.0017,"nx":28,"ny":28,"refTime":"2025-07-16T03:00:00:Z","depth":0,"parameterNumber":2,"parameterNumberName":"U-component_of_WINDS"},"data":[0,0,0,0,0,0,0,0,0,0,0,0,0,0,0,0,0,0,0,0,0,0,0,0,0,0,0,0,0,0,0,0,0,0,0,0,0,0,0,0,0,0,0,0,0,0,0,0,0,0,0,0,0,0,0,0,0,0,2.2073,2.2072,0,2.1979,2.1978,2.1977,2.1853,2.1851,2.1849,2.1847,2.1753,2.1752,2.1752,0,0,0,0,0,0,0,0,0,0,0,0,0,2.2145,2.2144,2.2073,2.2072,2.207,2.1979,2.1978,2.1977,2.1853,2.1851,2.1848,2.1846,2.1753,2.1752,2.1752,0,0,0,0,0,0,0,0,0,0,0,0,0,2.2089,2.2144,2.2073,2.1998,2.199,2.198,2.1978,2.1977,2.1854,2.1851,2.1848,2.1845,2.1753,2.1753,2.1752,2.1808,0,0,2.1749,2.1749,0,0,0,0,0,0,0,0,2.2092,2.2086,2.201,2.2003,2.1994,2.1925,2.1969,2.192,2.1855,2.1906,2.1847,2.1843,2.1813,2.1807,2.1796,2.1804,2.18,2.1749,2.1748,2.1748,2.1748,0,0,0,0,0,0,0,2.2096,2.209,2.2036,2.2009,2.1999,2.1969,2.1958,2.1959,2.1878,2.1901,2.1892,2.1882,2.1808,2.1797,2.1793,2.1798,2.1749,2.1748,2.1748,2.1747,2.1846,2.1849,0,0,0,0,0,0,2.2111,2.2094,2.2039,2.2033,2.2037,2.197,2.1957,2.195,2.1877,2.1863,2.1885,2.1877,2.18,2.1794,2.1789,2.1848,2.1748,2.1747,2.1747,2.1843,2.1846,2.185,0,0,0,0,0,0,2.2113,2.2108,2.2042,2.2061,2.205,2.1972,2.1965,2.195,2.1939,2.1865,2.185,2.1889,2.1797,2.179,2.1804,2.1843,2.1747,2.1746,2.1839,2.1844,2.1848,2.1969,0,0,0,0,0,0,2.2116,2.2109,2.2129,2.2062,2.205,2.2059,2.1967,2.195,2.1938,2.1926,2.1865,2.1852,2.1795,2.1806,2.1803,2.1841,2.1745,2.1835,2.1841,2.1847,2.1961,2.1977,2.1991,0,0,0,0,0,2.2119,2.2168,2.2131,2.2125,2.2073,2.2061,2.2054,2.1986,2.1941,2.1961,2.1914,2.1854,2.184,2.1808,2.1804,2.1842,2.1832,2.1839,2.1846,2.1954,2.1974,2.1991,0,0,0,0,0,0,2.2242,2.2158,2.2116,2.2144,2.2111,2.204,2.2063,2.201,2.1989,2.1979,2.1897,2.1884,2.1907,2.1876,2.1842,2.1892,2.1827,2.1834,2.1911,2.1929,2.1944,2.195,2.1745,0,0,0,0,0,2.2273,2.2269,2.2196,2.2228,2.2214,2.2142,2.2134,2.2085,2.2047,2.2032,2.1985,2.1952,2.1939,2.1933,2.1918,2.1957,2.1941,2.1981,2.1996,2.2009,2.2015,2.2032,2.2048,2.1873,2.1873,2.1873,0,0,2.2336,2.2289,2.2292,2.2252,2.222,2.2218,2.213,2.2133,2.213,2.2032,2.2041,2.2007,2.1963,2.1989,2.1999,2.1964,2.206,2.2018,2.2029,2.2027,2.2041,2.2057,2.2072,2.1878,2.1877,2.1876,0,0,2.2449,2.2414,2.2436,2.2406,2.2359,2.231,2.2316,2.2254,2.2226,2.2234,2.216,2.2157,2.2138,2.2109,2.2092,2.2195,2.2139,2.2193,2.2271,2.2288,2.2302,2.2314,2.2349,2.2362,2.22,2.22,2.22,0,2.2533,2.2527,2.2454,2.2461,2.2445,2.2356,2.2377,2.2352,2.2303,2.2294,2.2256,2.223,2.2195,2.2212,2.2237,2.2227,2.223,2.2198,2.2306,2.2317,2.2327,2.2359,2.2373,2.2207,2.2206,2.2205,2.2205,0,2.2631,2.2629,2.2653,2.2606,2.2593,2.2608,2.2537,2.2533,2.2486,2.2442,2.2451,2.2405,2.2378,2.238,2.2334,2.239,2.237,2.2321,2.2253,2.2351,2.238,2.2392,2.2216,2.2214,2.2212,2.221,0,0,2.2818,2.2731,2.2741,2.2718,2.266,2.2656,2.2667,2.264,2.2638,2.2607,2.2613,2.2599,2.2553,2.2534,2.2484,2.25,2.2582,2.2448,2.2445,2.2472,2.264,2.2676,2.2691,2.2545,2.2547,2.2549,2.2642,0,2.2918,2.293,2.2865,2.2894,2.289,2.2806,2.2815,2.278,2.274,2.273,2.2686,2.2676,2.2617,2.2604,2.2616,2.257,2.2614,2.2562,2.2549,2.2549,2.256,2.2706,2.2744,2.2835,2.2653,2.2655,2.2657,0,2.3036,2.3011,2.3039,2.2979,2.2974,2.2984,2.2953,2.2946,2.2905,2.2874,2.2854,2.2796,2.2802,2.274,2.2746,2.2712,2.2703,2.268,2.2682,2.2676,2.2607,2.2703,2.2862,2.2875,2.2674,2.2673,2.2672,0,2.3167,2.314,2.3153,2.3137,2.3067,2.3075,2.3047,2.3002,2.299,2.2965,2.2956,2.2932,2.2918,2.2901,2.2838,2.2799,2.2851,2.2784,2.2825,2.2827,2.2838,2.2838,2.2996,2.2837,2.2837,2.2836,2.2836,0,2.3284,2.3304,2.321,2.3218,2.3238,2.3165,2.3186,2.315,2.3111,2.311,2.3038,2.3038,2.2957,2.2949,2.2901,2.2912,2.2907,2.2882,2.2868,2.2887,2.289,2.2878,2.2869,2.284,2.2839,2.2838,2.2838,0,2.3432,2.337,2.3379,2.3312,2.3296,2.3313,2.3256,2.326,2.3216,2.3216,2.3211,2.3141,2.3128,2.3064,2.3037,2.3004,2.3031,2.3006,2.3045,2.3036,2.3079,2.3075,2.3234,2.325,2.3083,2.3085,2.3086,0,2.3509,2.3523,2.3457,2.3451,2.3426,2.3417,2.3404,2.3333,2.3322,2.3276,2.3286,2.3267,2.3247,2.323,2.3176,2.3154,2.3127,2.3184,2.3123,2.3141,2.3125,2.3124,2.3124,2.3196,2.3198,2.32,2.3202,0,2.3653,2.3622,2.3606,2.3579,2.3566,2.3542,2.3513,2.3512,2.3433,2.3425,2.3409,2.3394,2.3365,2.3346,2.3316,2.3286,2.323,2.3222,2.3229,2.3247,2.3268,2.3255,2.3078,2.3218,2.3216,2.3215,2.3214,2.3213,2.3766,2.3774,2.3729,2.3713,2.3684,2.3659,2.3659,2.3615,2.3601,2.3571,2.353,2.352,2.3478,2.3431,2.3406,2.3397,2.3365,2.3378,2.338,2.3383,2.3392,2.3272,2.3391,2.3391,2.339,2.339,2.3389,0,2.3904,2.3871,2.3858,2.3819,2.3807,2.3757,2.3722,2.3715,2.3707,2.3673,2.3655,2.3637,2.3619,2.3565,2.354,2.3544,2.3518,2.354,2.3537,2.3531,2.3423,2.3417,2.3561,2.3561,2.3561,2.3561,2.3561,2.3561,2.3974,2.3984,2.3947,2.3942,2.3908,2.3897,2.3882,2.3858,2.383,2.3814,2.3798,2.3762,2.372,2.3692,2.3672,2.3657,2.365,2.3681,2.3657,2.3556,2.3539,2.3523,2.3518,2.368,2.3681,2.3765,2.3766,2.3767]},{"header":{"parameterUnit":"m.s-1","parameterCategory":1,"la1":30.2991,"la2":30.254,"lo1":-89.0895,"lo2":-89.0444,"dy":0.0017,"dx":0.0017,"nx":28,"ny":28,"refTime":"2025-07-16T03:00:00:Z","depth":0,"parameterNumber":3,"parameterNumberName":"V-component_of_WINDS"},"data":[0,0,0,0,0,0,0,0,0,0,0,0,0,0,0,0,0,0,0,0,0,0,0,0,0,0,0,0,0,0,0,0,0,0,0,0,0,0,0,0,0,0,0,0,0,0,0,0,0,0,0,0,0,0,0,0,0,0,6.1934,6.1934,0,6.1891,6.189,6.189,6.1808,6.1806,6.1805,6.1803,6.1755,6.1755,6.1756,0,0,0,0,0,0,0,0,0,0,0,0,0,6.194,6.194,6.1934,6.1934,6.1933,6.1891,6.189,6.189,6.1808,6.1806,6.1804,6.1803,6.1755,6.1755,6.1756,0,0,0,0,0,0,0,0,0,0,0,0,0,6.1921,6.194,6.1934,6.1887,6.1883,6.1891,6.189,6.189,6.1809,6.1806,6.1804,6.1802,6.1755,6.1755,6.1756,6.1805,0,0,6.1757,6.1757,0,0,0,0,0,0,0,0,6.1922,6.1921,6.1895,6.1891,6.1885,6.1852,6.1874,6.1861,6.1809,6.1837,6.1803,6.18,6.1789,6.1787,6.1784,6.1803,6.1801,6.1757,6.1757,6.1757,6.1757,0,0,0,0,0,0,0,6.1923,6.1922,6.1917,6.1895,6.1889,6.1866,6.1861,6.1872,6.1827,6.1834,6.1828,6.1824,6.1786,6.1784,6.1782,6.18,6.1757,6.1757,6.1757,6.1757,6.1851,6.1853,0,0,0,0,0,0,6.1932,6.1924,6.1918,6.1916,6.1898,6.1868,6.1862,6.1865,6.1826,6.1818,6.1826,6.1821,6.1784,6.1782,6.178,6.1831,6.1757,6.1757,6.1757,6.1848,6.1851,6.1854,0,0,0,0,0,0,6.1933,6.1933,6.192,6.1918,6.1915,6.1871,6.1875,6.1866,6.1863,6.1821,6.1812,6.1832,6.1782,6.1779,6.1798,6.1828,6.1757,6.1758,6.1846,6.1849,6.1852,6.1936,0,0,0,0,0,0,6.1933,6.1933,6.1954,6.1919,6.1915,6.1942,6.1877,6.1867,6.1864,6.1856,6.1824,6.1816,6.178,6.1798,6.1798,6.1827,6.1758,6.1843,6.1847,6.1851,6.193,6.1942,6.1951,0,0,0,0,0,6.1934,6.1979,6.1955,6.1955,6.194,6.1944,6.1941,6.19,6.1867,6.1885,6.1857,6.1817,6.1825,6.1801,6.18,6.183,6.1841,6.1846,6.1851,6.1925,6.1939,6.1951,0,0,0,0,0,0,6.2018,6.1974,6.1947,6.1983,6.1968,6.193,6.1952,6.1917,6.191,6.1903,6.1851,6.1844,6.1868,6.1851,6.1825,6.1872,6.1826,6.1831,6.1883,6.1896,6.1906,6.1909,6.1758,0,0,0,0,0,6.2041,6.205,6.201,6.2045,6.2039,6.1997,6.1997,6.1967,6.1948,6.1941,6.1915,6.1897,6.1894,6.1894,6.1891,6.1927,6.1916,6.1947,6.1957,6.1966,6.1971,6.1983,6.1995,6.1871,6.1871,6.187,0,0,6.2089,6.2065,6.2074,6.2062,6.2046,6.2053,6.1992,6.2004,6.2007,6.1942,6.1958,6.1937,6.1914,6.194,6.1951,6.1926,6.2003,6.1973,6.198,6.198,6.199,6.2002,6.2012,6.1874,6.1874,6.1873,0,0,6.2178,6.2163,6.2188,6.2174,6.2151,6.2122,6.2128,6.2095,6.2078,6.2093,6.2043,6.2045,6.2045,6.2028,6.202,6.2098,6.2059,6.2098,6.2153,6.2166,6.2176,6.2184,6.2208,6.2217,6.2103,6.2103,6.2103,0,6.2239,6.225,6.2206,6.2219,6.2213,6.2154,6.2178,6.2165,6.2142,6.2138,6.2111,6.2105,6.2086,6.2105,6.2123,6.212,6.2122,6.2101,6.2178,6.2186,6.2193,6.2215,6.2225,6.2108,6.2107,6.2107,6.2106,0,6.2324,6.2331,6.2355,6.2333,6.233,6.2348,6.2304,6.2306,6.2274,6.2247,6.226,6.2234,6.2221,6.2224,6.2194,6.2237,6.2222,6.2188,6.214,6.221,6.223,6.2238,6.2114,6.2113,6.2111,6.211,0,0,6.2466,6.2418,6.2427,6.2414,6.2383,6.2387,6.24,6.2388,6.2389,6.2374,6.2381,6.2379,6.2346,6.2336,6.2303,6.2315,6.2373,6.2278,6.2276,6.2293,6.2413,6.2438,6.2448,6.2347,6.2349,6.235,6.2414,0,6.2546,6.2568,6.2527,6.2558,6.2562,6.2504,6.2515,6.2495,6.2469,6.2467,6.2437,6.2435,6.2393,6.2386,6.2396,6.2364,6.2395,6.2359,6.235,6.235,6.2355,6.2459,6.2486,6.2548,6.2422,6.2423,6.2424,0,6.2643,6.2632,6.2663,6.2625,6.2625,6.2637,6.2619,6.2619,6.2593,6.2573,6.2561,6.2521,6.2528,6.2483,6.2489,6.2465,6.2458,6.2442,6.2443,6.2439,6.239,6.2455,6.2567,6.2576,6.2436,6.2435,6.2434,0,6.2739,6.2732,6.2748,6.274,6.2697,6.2706,6.2688,6.266,6.2654,6.2639,6.2633,6.2619,6.261,6.2598,6.2554,6.2526,6.2563,6.2516,6.2544,6.2545,6.2553,6.2553,6.2663,6.2554,6.2553,6.2553,6.2553,0,6.2831,6.2851,6.279,6.28,6.2819,6.277,6.279,6.2766,6.2742,6.2743,6.2693,6.2695,6.2638,6.2632,6.2598,6.2605,6.2603,6.2584,6.2574,6.2587,6.2589,6.258,6.2574,6.2556,6.2555,6.2555,6.2554,0,6.2941,6.2902,6.2915,6.2873,6.2863,6.2878,6.2841,6.2846,6.2816,6.2818,6.2816,6.2768,6.2758,6.2713,6.2694,6.267,6.2688,6.2671,6.2697,6.269,6.2718,6.2715,6.2826,6.2835,6.2723,6.2724,6.2725,0,6.3001,6.3015,6.2974,6.2972,6.2957,6.2954,6.2947,6.2898,6.2892,6.2862,6.287,6.2856,6.2843,6.2829,6.2791,6.2774,6.2754,6.2793,6.2751,6.2762,6.275,6.2748,6.2747,6.2802,6.2803,6.2805,6.2806,0,6.3111,6.309,6.3083,6.3067,6.306,6.3045,6.3027,6.3028,6.2973,6.2968,6.2958,6.2948,6.2926,6.2911,6.2887,6.2865,6.2825,6.2819,6.2824,6.2837,6.285,6.2839,6.2719,6.2817,6.2816,6.2815,6.2814,6.2814,6.3196,6.3204,6.3175,6.3167,6.3148,6.3131,6.3133,6.3102,6.3094,6.3073,6.3044,6.3036,6.3005,6.2968,6.2949,6.294,6.2918,6.2926,6.2927,6.293,6.2934,6.2853,6.2936,6.2936,6.2935,6.2935,6.2935,0,6.33,6.3278,6.3271,6.3247,6.3239,6.3203,6.318,6.3175,6.317,6.3145,6.3132,6.3118,6.3102,6.3062,6.3041,6.3041,6.3022,6.3037,6.3036,6.303,6.2958,6.2954,6.3053,6.3053,6.3053,6.3053,6.3053,6.3053,6.3353,6.3363,6.3338,6.3336,6.3313,6.3307,6.3296,6.3278,6.3258,6.3245,6.3232,6.3206,6.3172,6.3148,6.3131,6.3119,6.3112,6.3133,6.3115,6.3047,6.3036,6.3025,6.3021,6.3133,6.3133,6.3188,6.3188,6.3189]}]]